TimeEDT,TemperatureF,Dew PointF,Humidity,Sea Level PressureIn,VisibilityMPH,Wind Direction,Wind SpeedMPH,Gust SpeedMPH,PrecipitationIn,Events,Conditions,WindDirDegrees,DateUTC
12:54 AM,48.0,39.9,74,30.09,10.0,ESE,5.8,-,N/A,,Clear,110,2012-10-23 04:54:00
1:54 AM,46.9,39.9,77,30.09,10.0,ESE,3.5,-,N/A,,Clear,120,2012-10-23 05:54:00
2:54 AM,46.0,39.0,76,30.09,10.0,Calm,Calm,-,N/A,,Clear,0,2012-10-23 06:54:00
3:54 AM,46.0,39.0,76,30.08,10.0,East,3.5,-,N/A,,Clear,100,2012-10-23 07:54:00
4:54 AM,46.0,39.0,76,30.09,10.0,East,4.6,-,N/A,,Clear,90,2012-10-23 08:54:00
5:54 AM,45.0,39.0,80,30.09,10.0,ESE,3.5,-,N/A,,Partly Cloudy,110,2012-10-23 09:54:00
6:54 AM,48.0,39.9,74,30.11,10.0,NNE,5.8,-,N/A,,Overcast,20,2012-10-23 10:54:00
7:54 AM,46.9,42.1,83,30.13,10.0,Calm,Calm,-,N/A,,Overcast,0,2012-10-23 11:54:00
8:54 AM,46.0,44.1,93,30.15,6.0,Calm,Calm,-,0.01,Rain,Light Rain,0,2012-10-23 12:54:00
9:16 AM,46.4,44.6,93,30.13,2.0,Calm,Calm,-,0.03,Rain,Rain,0,2012-10-23 13:16:00
9:19 AM,46.4,44.6,93,30.13,2.0,North,3.5,-,0.04,Rain,Rain,350,2012-10-23 13:19:00
9:28 AM,46.4,44.6,93,30.13,3.0,NNW,5.8,-,0.04,Rain,Light Rain,340,2012-10-23 13:28:00
9:54 AM,48.0,46.0,93,30.12,3.0,Calm,Calm,-,0.05,,Overcast,0,2012-10-23 13:54:00
10:23 AM,48.2,46.4,93,30.13,5.0,Calm,Calm,-,N/A,,Overcast,0,2012-10-23 14:23:00
10:54 AM,48.9,46.9,93,30.13,5.0,Calm,Calm,-,0.00,Rain,Light Rain,0,2012-10-23 14:54:00
11:54 AM,52.0,48.9,89,30.11,7.0,North,3.5,-,0.01,Rain,Light Rain,350,2012-10-23 15:54:00
12:54 PM,54.0,48.0,80,30.11,8.0,Calm,Calm,-,0.00,,Overcast,0,2012-10-23 16:54:00
1:54 PM,55.0,50.0,83,30.08,8.0,North,3.5,-,N/A,,Mostly Cloudy,360,2012-10-23 17:54:00
2:54 PM,57.9,52.0,81,30.06,8.0,Calm,Calm,-,N/A,,Overcast,0,2012-10-23 18:54:00
3:54 PM,57.9,52.0,81,30.06,8.0,Calm,Calm,-,0.00,Rain,Light Rain,0,2012-10-23 19:54:00
4:54 PM,57.9,53.1,84,30.05,8.0,NE,3.5,-,0.00,Rain,Light Rain,50,2012-10-23 20:54:00
5:54 PM,57.0,54.0,89,30.04,7.0,NE,3.5,-,0.01,Rain,Light Rain,40,2012-10-23 21:54:00
6:54 PM,57.0,54.0,89,30.06,6.0,East,4.6,-,0.00,,Overcast,80,2012-10-23 22:54:00
7:34 PM,57.2,55.4,94,30.06,2.5,SW,3.5,-,0.03,Rain,Rain,230,2012-10-23 23:34:00
7:54 PM,57.0,55.0,93,30.06,2.5,Calm,Calm,-,0.07,Rain,Light Rain,0,2012-10-23 23:54:00
8:11 PM,55.4,55.4,100,30.07,1.5,NNE,4.6,-,0.02,Rain,Rain,20,2012-10-24 00:11:00
8:28 PM,57.2,55.4,94,30.08,2.5,Calm,Calm,-,0.03,Rain,Light Rain,0,2012-10-24 00:28:00
8:35 PM,57.2,55.4,94,30.08,3.0,Calm,Calm,-,0.04,Rain,Light Rain,0,2012-10-24 00:35:00
8:40 PM,57.2,55.4,94,30.08,1.8,Calm,Calm,-,0.04,Rain,Rain,0,2012-10-24 00:40:00
8:54 PM,57.0,55.0,93,30.09,1.2,Calm,Calm,-,0.07,Rain,Light Rain,0,2012-10-24 00:54:00
9:54 PM,57.0,55.0,93,30.08,1.8,Calm,Calm,-,0.07,,Overcast,0,2012-10-24 01:54:00
10:11 PM,55.4,55.4,100,30.08,0.5,Calm,Calm,-,N/A,Fog,Fog,0,2012-10-24 02:11:00
10:42 PM,55.4,55.4,100,30.08,2.0,ENE,3.5,-,N/A,,Overcast,60,2012-10-24 02:42:00
10:54 PM,57.0,55.0,93,30.08,2.0,Calm,Calm,-,N/A,,Overcast,0,2012-10-24 02:54:00
11:09 PM,57.2,55.4,94,30.08,3.0,Calm,Calm,-,N/A,,Overcast,0,2012-10-24 03:09:00
11:31 PM,57.2,55.4,94,30.08,2.5,Calm,Calm,-,N/A,,Overcast,0,2012-10-24 03:31:00
11:49 PM,57.2,55.4,94,30.08,5.0,Calm,Calm,-,N/A,,Overcast,0,2012-10-24 03:49:00
11:54 PM,57.0,55.0,93,30.08,4.0,Calm,Calm,-,N/A,,Overcast,0,2012-10-24 03:54:00